Location: Unspecified
(51.0950°N, 12.9690°E)
Time: 22:50:50
(UTC+00:00)

SL-16 R/B - Pass Details

Date: 28 October 2021
Orbit: 842 x 846 km, 71.0° (Epoch: 01 December)

Event Time Altitude Azimuth Distance (km) Brightness Sun altitude
Rises 18:41:23 0° 256° (WSW) 3,400 6.3 -27.5°
Reaches altitude 10° 18:44:21 10° 271° (W) 2,469 5.5 -27.9°
Maximum altitude 18:48:46 23° 323° (NW) 1,742 4.3 -28.6°
Drops below altitude 10° 18:53:12 10° 14° (NNE) 2,479 4.6 -29.3°
Enters shadow 18:53:43 - 18° (NNE) 2,628 4.7 -29.3°
